Time,TemperatureF,DewpointF,PressureIn,WindDirection,WindDirectionDegrees,WindSpeedMPH,WindSpeedGustMPH,Humidity,HourlyPrecipIn,Conditions,Clouds,dailyrainin,SoftwareType,DateUTC
2013-02-11 00:00:00,40.0,37.0,-100.00,ENE,59,5.0,-999.0,89,0.00,,,-99.99,,2013-02-11 08:00:00,
2013-02-11 00:22:00,40.0,37.0,-100.00,ENE,59,5.0,-999.0,89,0.00,,,-99.99,,2013-02-11 08:22:00,
2013-02-11 00:32:00,40.0,37.0,-100.00,ENE,59,5.0,-999.0,89,0.00,,,-99.99,,2013-02-11 08:32:00,
2013-02-11 00:42:00,40.0,37.0,-100.00,ENE,59,5.0,-999.0,89,0.00,,,-99.99,,2013-02-11 08:42:00,
2013-02-11 00:52:00,40.0,37.0,-100.00,ENE,59,5.0,-999.0,89,0.00,,,-99.99,,2013-02-11 08:52:00,
2013-02-11 01:00:00,39.0,36.0,-100.00,ENE,64,2.0,-999.0,88,0.00,,,-99.99,,2013-02-11 09:00:00,
2013-02-11 01:22:00,39.0,36.0,-100.00,ENE,64,2.0,-999.0,88,0.00,,,-99.99,,2013-02-11 09:22:00,
2013-02-11 01:32:00,39.0,36.0,-100.00,ENE,64,2.0,-999.0,88,0.00,,,-99.99,,2013-02-11 09:32:00,
2013-02-11 01:42:00,39.0,36.0,-100.00,ENE,64,2.0,-999.0,88,0.00,,,-99.99,,2013-02-11 09:42:00,
2013-02-11 01:52:00,39.0,36.0,-100.00,ENE,64,2.0,-999.0,88,0.00,,,-99.99,,2013-02-11 09:52:00,
2013-02-11 02:00:00,38.0,35.0,-100.00,ENE,58,3.0,-999.0,89,0.00,,,-99.99,,2013-02-11 10:00:00,
2013-02-11 02:21:00,38.0,35.0,-100.00,ENE,58,3.0,-999.0,89,0.00,,,-99.99,,2013-02-11 10:21:00,
2013-02-11 02:32:00,38.0,35.0,-100.00,ENE,58,3.0,-999.0,89,0.00,,,-99.99,,2013-02-11 10:32:00,
2013-02-11 02:42:00,38.0,35.0,-100.00,ENE,58,3.0,-999.0,89,0.00,,,-99.99,,2013-02-11 10:42:00,
2013-02-11 02:52:00,38.0,35.0,-100.00,ENE,58,3.0,-999.0,89,0.00,,,-99.99,,2013-02-11 10:52:00,
2013-02-11 03:00:00,39.0,36.0,-100.00,East,86,2.0,-999.0,88,0.00,,,-99.99,,2013-02-11 11:00:00,
2013-02-11 03:22:00,39.0,36.0,-100.00,East,86,2.0,-999.0,88,0.00,,,-99.99,,2013-02-11 11:22:00,
2013-02-11 03:32:00,39.0,36.0,-100.00,East,86,2.0,-999.0,88,0.00,,,-99.99,,2013-02-11 11:32:00,
2013-02-11 03:42:00,39.0,36.0,-100.00,East,86,2.0,-999.0,88,0.00,,,-99.99,,2013-02-11 11:42:00,
2013-02-11 03:52:00,39.0,36.0,-100.00,East,86,2.0,-999.0,88,0.00,,,-99.99,,2013-02-11 11:52:00,
2013-02-11 04:00:00,39.0,35.0,-100.00,East,81,4.0,-999.0,87,0.00,,,-99.99,,2013-02-11 12:00:00,
2013-02-11 04:22:00,39.0,35.0,-100.00,East,81,4.0,-999.0,87,0.00,,,-99.99,,2013-02-11 12:22:00,
2013-02-11 04:32:00,39.0,35.0,-100.00,East,81,4.0,-999.0,87,0.00,,,-99.99,,2013-02-11 12:32:00,
2013-02-11 04:42:00,39.0,35.0,-100.00,East,81,4.0,-999.0,87,0.00,,,-99.99,,2013-02-11 12:42:00,
2013-02-11 04:52:00,39.0,35.0,-100.00,East,81,4.0,-999.0,87,0.00,,,-99.99,,2013-02-11 12:52:00,
2013-02-11 05:00:00,38.0,35.0,-100.00,NNE,31,3.0,-999.0,87,0.00,,,-99.99,,2013-02-11 13:00:00,
2013-02-11 05:22:00,38.0,35.0,-100.00,NNE,31,3.0,-999.0,87,0.00,,,-99.99,,2013-02-11 13:22:00,
2013-02-11 05:33:00,38.0,35.0,-100.00,NNE,31,3.0,-999.0,87,0.00,,,-99.99,,2013-02-11 13:33:00,
2013-02-11 05:42:00,38.0,35.0,-100.00,NNE,31,3.0,-999.0,87,0.00,,,-99.99,,2013-02-11 13:42:00,
2013-02-11 05:52:00,38.0,35.0,-100.00,NNE,31,3.0,-999.0,87,0.00,,,-99.99,,2013-02-11 13:52:00,
2013-02-11 06:00:00,39.0,35.0,-100.00,NE,50,4.0,-999.0,87,0.00,,,-99.99,,2013-02-11 14:00:00,
2013-02-11 06:22:00,39.0,35.0,-100.00,NE,50,4.0,-999.0,87,0.00,,,-99.99,,2013-02-11 14:22:00,
2013-02-11 06:33:00,39.0,35.0,-100.00,NE,50,4.0,-999.0,87,0.00,,,-99.99,,2013-02-11 14:33:00,
2013-02-11 06:42:00,39.0,35.0,-100.00,NE,50,4.0,-999.0,87,0.00,,,-99.99,,2013-02-11 14:42:00,
2013-02-11 06:52:00,39.0,35.0,-100.00,NE,50,4.0,-999.0,87,0.00,,,-99.99,,2013-02-11 14:52:00,
2013-02-11 07:00:00,38.0,34.0,-100.00,East,81,4.0,-999.0,86,0.00,,,-99.99,,2013-02-11 15:00:00,
2013-02-11 07:22:00,38.0,34.0,-100.00,East,81,4.0,-999.0,86,0.00,,,-99.99,,2013-02-11 15:22:00,
2013-02-11 07:32:00,38.0,34.0,-100.00,East,81,4.0,-999.0,86,0.00,,,-99.99,,2013-02-11 15:32:00,
2013-02-11 07:42:00,38.0,34.0,-100.00,East,81,4.0,-999.0,86,0.00,,,-99.99,,2013-02-11 15:42:00,
2013-02-11 07:52:00,38.0,34.0,-100.00,East,81,4.0,-999.0,86,0.00,,,-99.99,,2013-02-11 15:52:00,
2013-02-11 08:00:00,37.0,33.0,-100.00,NE,49,2.0,-999.0,86,0.00,,,-99.99,,2013-02-11 16:00:00,
2013-02-11 08:22:00,37.0,33.0,-100.00,NE,49,2.0,-999.0,86,0.00,,,-99.99,,2013-02-11 16:22:00,
2013-02-11 08:32:00,37.0,33.0,-100.00,NE,49,2.0,-999.0,86,0.00,,,-99.99,,2013-02-11 16:32:00,
2013-02-11 08:42:00,37.0,33.0,-100.00,NE,49,2.0,-999.0,86,0.00,,,-99.99,,2013-02-11 16:42:00,
2013-02-11 08:52:00,37.0,33.0,-100.00,NE,49,2.0,-999.0,86,0.00,,,-99.99,,2013-02-11 16:52:00,
2013-02-11 18:00:00,49.0,45.0,-100.00,NNW,348,10.0,-999.0,84,0.00,,,-99.99,,2013-02-12 02:00:00,
2013-02-11 18:32:00,49.0,45.0,-100.00,NNW,348,10.0,-999.0,84,0.00,,,-99.99,,2013-02-12 02:32:00,
2013-02-11 18:42:00,49.0,45.0,-100.00,NNW,348,10.0,-999.0,84,0.00,,,-99.99,,2013-02-12 02:42:00,
2013-02-11 18:52:00,49.0,45.0,-100.00,NNW,348,10.0,-999.0,84,0.00,,,-99.99,,2013-02-12 02:52:00,
2013-02-11 19:00:00,48.0,45.0,-100.00,NNW,338,4.0,-999.0,87,0.00,,,-99.99,,2013-02-12 03:00:00,
2013-02-11 19:21:00,48.0,45.0,-100.00,NNW,338,4.0,-999.0,87,0.00,,,-99.99,,2013-02-12 03:21:00,
2013-02-11 19:32:00,48.0,45.0,-100.00,NNW,338,4.0,-999.0,87,0.00,,,-99.99,,2013-02-12 03:32:00,
2013-02-11 19:42:00,48.0,45.0,-100.00,NNW,338,4.0,-999.0,87,0.00,,,-99.99,,2013-02-12 03:42:00,
2013-02-11 19:52:00,48.0,45.0,-100.00,NNW,338,4.0,-999.0,87,0.00,,,-99.99,,2013-02-12 03:52:00,
2013-02-11 20:00:00,47.0,44.0,-100.00,North,8,4.0,-999.0,87,0.00,,,-99.99,,2013-02-12 04:00:00,
2013-02-11 20:21:00,47.0,44.0,-100.00,North,8,4.0,-999.0,87,0.00,,,-99.99,,2013-02-12 04:21:00,
2013-02-11 20:32:00,47.0,44.0,-100.00,North,8,4.0,-999.0,87,0.00,,,-99.99,,2013-02-12 04:32:00,
2013-02-11 20:42:00,47.0,44.0,-100.00,North,8,4.0,-999.0,87,0.00,,,-99.99,,2013-02-12 04:42:00,
2013-02-11 20:52:00,47.0,44.0,-100.00,North,8,4.0,-999.0,87,0.00,,,-99.99,,2013-02-12 04:52:00,
2013-02-11 21:00:00,44.0,41.0,-100.00,ENE,75,1.0,-999.0,88,0.00,,,-99.99,,2013-02-12 05:00:00,
2013-02-11 21:21:00,44.0,41.0,-100.00,ENE,75,1.0,-999.0,88,0.00,,,-99.99,,2013-02-12 05:21:00,
2013-02-11 21:32:00,44.0,41.0,-100.00,ENE,75,1.0,-999.0,88,0.00,,,-99.99,,2013-02-12 05:32:00,
2013-02-11 21:42:00,44.0,41.0,-100.00,ENE,75,1.0,-999.0,88,0.00,,,-99.99,,2013-02-12 05:42:00,
2013-02-11 21:52:00,44.0,41.0,-100.00,ENE,75,1.0,-999.0,88,0.00,,,-99.99,,2013-02-12 05:52:00,
2013-02-11 22:00:00,42.0,39.0,-100.00,ENE,75,2.0,-999.0,91,0.00,,,-99.99,,2013-02-12 06:00:00,
2013-02-11 22:22:00,42.0,39.0,-100.00,ENE,75,2.0,-999.0,91,0.00,,,-99.99,,2013-02-12 06:22:00,
2013-02-11 22:32:00,42.0,39.0,-100.00,ENE,75,2.0,-999.0,91,0.00,,,-99.99,,2013-02-12 06:32:00,
2013-02-11 22:42:00,42.0,39.0,-100.00,ENE,75,2.0,-999.0,91,0.00,,,-99.99,,2013-02-12 06:42:00,
2013-02-11 22:52:00,42.0,39.0,-100.00,ENE,75,2.0,-999.0,91,0.00,,,-99.99,,2013-02-12 06:52:00,
2013-02-11 23:00:00,40.0,37.0,-100.00,NNE,19,2.0,-999.0,91,0.00,,,-99.99,,2013-02-12 07:00:00,
2013-02-11 23:22:00,40.0,37.0,-100.00,NNE,19,2.0,-999.0,91,0.00,,,-99.99,,2013-02-12 07:22:00,
2013-02-11 23:32:00,40.0,37.0,-100.00,NNE,19,2.0,-999.0,91,0.00,,,-99.99,,2013-02-12 07:32:00,
2013-02-11 23:42:00,40.0,37.0,-100.00,NNE,19,2.0,-999.0,91,0.00,,,-99.99,,2013-02-12 07:42:00,
2013-02-11 23:52:00,40.0,37.0,-100.00,NNE,19,2.0,-999.0,91,0.00,,,-99.99,,2013-02-12 07:52:00,